Time,TemperatureF,DewpointF,PressureIn,WindDirection,WindDirectionDegrees,WindSpeedMPH,WindSpeedGustMPH,Humidity,HourlyPrecipIn,Conditions,Clouds,dailyrainin,SoftwareType,DateUTC
2013-09-19 00:01:00,69.0,67.2,30.11,NE,37,1.0,6.0,94,0.00,,,0.00,Weather View 32 v70,2013-09-19 04:01:00,
2013-09-19 00:02:00,69.0,67.5,30.11,NE,37,0.0,6.0,95,0.00,,,0.00,Weather View 32 v70,2013-09-19 04:02:00,
2013-09-19 00:07:00,69.2,67.4,30.12,NNE,32,0.0,6.0,94,0.00,,,0.00,Weather View 32 v70,2013-09-19 04:07:00,
2013-09-19 00:08:00,69.2,67.4,30.12,NNE,32,0.0,6.0,94,0.00,,,0.00,Weather View 32 v70,2013-09-19 04:08:00,
2013-09-19 00:13:00,69.3,67.8,30.12,NNE,32,0.0,6.0,95,0.00,,,0.00,Weather View 32 v70,2013-09-19 04:13:00,
2013-09-19 00:18:00,69.4,67.6,30.11,NNE,32,0.0,6.0,94,0.00,,,0.00,Weather View 32 v70,2013-09-19 04:18:00,
2013-09-19 00:23:00,69.4,67.6,30.11,NE,39,0.0,6.0,94,0.00,,,0.00,Weather View 32 v70,2013-09-19 04:23:00,
2013-09-19 00:28:00,69.4,67.9,30.11,NE,43,0.0,6.0,95,0.00,,,0.00,Weather View 32 v70,2013-09-19 04:28:00,
2013-09-19 00:33:00,69.3,67.5,30.11,NE,43,0.0,6.0,94,0.00,,,0.00,Weather View 32 v70,2013-09-19 04:33:00,
2013-09-19 00:38:00,69.2,67.7,30.11,NE,43,0.0,6.0,95,0.00,,,0.00,Weather View 32 v70,2013-09-19 04:38:00,
2013-09-19 00:43:00,69.1,67.6,30.11,NE,43,0.0,6.0,95,0.00,,,0.00,Weather View 32 v70,2013-09-19 04:43:00,
2013-09-19 00:48:00,69.1,67.6,30.11,NE,43,0.0,6.0,95,0.00,,,0.00,Weather View 32 v70,2013-09-19 04:48:00,
2013-09-19 00:53:00,69.0,67.5,30.11,NE,43,0.0,6.0,95,0.00,,,0.00,Weather View 32 v70,2013-09-19 04:53:00,
2013-09-19 00:58:00,69.0,67.8,30.11,NE,43,0.0,6.0,96,0.00,,,0.00,Weather View 32 v70,2013-09-19 04:58:00,
2013-09-19 01:03:00,68.9,67.7,30.11,NE,43,0.0,6.0,96,0.00,,,0.00,Weather View 32 v70,2013-09-19 05:03:00,
2013-09-19 01:08:00,68.9,68.0,30.11,NE,43,0.0,6.0,97,0.00,,,0.00,Weather View 32 v70,2013-09-19 05:08:00,
2013-09-19 01:13:00,68.9,68.0,30.10,NNE,33,0.0,6.0,97,0.00,,,0.00,Weather View 32 v70,2013-09-19 05:13:00,
2013-09-19 01:18:00,68.9,68.0,30.10,NNE,33,0.0,6.0,97,0.00,,,0.00,Weather View 32 v70,2013-09-19 05:18:00,
2013-09-19 01:23:00,69.0,68.1,30.10,North,4,0.0,6.0,97,0.00,,,0.00,Weather View 32 v70,2013-09-19 05:23:00,
2013-09-19 01:28:00,69.0,68.1,30.10,North,0,0.0,1.0,97,0.00,,,0.00,Weather View 32 v70,2013-09-19 05:28:00,
2013-09-19 01:33:00,69.1,68.2,30.10,North,0,0.0,1.0,97,0.00,,,0.00,Weather View 32 v70,2013-09-19 05:33:00,
2013-09-19 01:38:00,69.1,68.2,30.10,North,0,0.0,1.0,97,0.00,,,0.00,Weather View 32 v70,2013-09-19 05:38:00,
2013-09-19 01:43:00,69.1,68.2,30.10,North,0,0.0,1.0,97,0.00,,,0.00,Weather View 32 v70,2013-09-19 05:43:00,
2013-09-19 01:48:00,69.1,68.2,30.09,North,0,0.0,1.0,97,0.00,,,0.00,Weather View 32 v70,2013-09-19 05:48:00,
2013-09-19 01:53:00,69.2,68.3,30.09,North,0,0.0,1.0,97,0.00,,,0.00,Weather View 32 v70,2013-09-19 05:53:00,
2013-09-19 01:58:00,69.3,68.4,30.09,North,0,0.0,1.0,97,0.00,,,0.00,Weather View 32 v70,2013-09-19 05:58:00,
2013-09-19 02:03:00,69.4,68.5,30.09,North,0,0.0,1.0,97,0.00,,,0.00,Weather View 32 v70,2013-09-19 06:03:00,
2013-09-19 02:08:00,69.4,68.5,30.09,North,0,0.0,1.0,97,0.00,,,0.00,Weather View 32 v70,2013-09-19 06:08:00,
2013-09-19 02:13:00,69.4,68.5,30.09,North,0,0.0,1.0,97,0.00,,,0.00,Weather View 32 v70,2013-09-19 06:13:00,
2013-09-19 02:18:00,69.5,68.6,30.09,North,0,0.0,1.0,97,0.00,,,0.00,Weather View 32 v70,2013-09-19 06:18:00,
2013-09-19 02:23:00,69.5,68.6,30.09,North,0,0.0,1.0,97,0.00,,,0.00,Weather View 32 v70,2013-09-19 06:23:00,
2013-09-19 02:28:00,69.6,68.7,30.09,North,0,0.0,1.0,97,0.00,,,0.00,Weather View 32 v70,2013-09-19 06:28:00,
2013-09-19 02:33:00,69.6,68.7,30.09,North,0,0.0,1.0,97,0.00,,,0.00,Weather View 32 v70,2013-09-19 06:33:00,
2013-09-19 02:38:00,69.7,68.8,30.08,North,0,0.0,1.0,97,0.00,,,0.00,Weather View 32 v70,2013-09-19 06:38:00,
2013-09-19 02:43:00,69.8,68.9,30.08,North,0,0.0,1.0,97,0.00,,,0.00,Weather View 32 v70,2013-09-19 06:43:00,
2013-09-19 02:48:00,69.9,69.0,30.08,North,0,0.0,1.0,97,0.00,,,0.00,Weather View 32 v70,2013-09-19 06:48:00,
2013-09-19 02:53:00,70.0,69.1,30.08,North,0,0.0,1.0,97,0.00,,,0.00,Weather View 32 v70,2013-09-19 06:53:00,
2013-09-19 02:58:00,70.0,68.8,30.08,North,0,0.0,1.0,96,0.00,,,0.00,Weather View 32 v70,2013-09-19 06:58:00,
2013-09-19 03:03:00,70.0,68.8,30.07,North,0,0.0,1.0,96,0.00,,,0.00,Weather View 32 v70,2013-09-19 07:03:00,
2013-09-19 03:08:00,70.0,68.8,30.07,North,0,0.0,1.0,96,0.00,,,0.00,Weather View 32 v70,2013-09-19 07:08:00,
2013-09-19 03:13:00,70.0,68.8,30.08,North,0,0.0,1.0,96,0.00,,,0.00,Weather View 32 v70,2013-09-19 07:13:00,
2013-09-19 03:18:00,70.0,68.8,30.07,North,0,0.0,1.0,96,0.00,,,0.00,Weather View 32 v70,2013-09-19 07:18:00,
2013-09-19 03:23:00,70.1,69.2,30.07,North,0,0.0,1.0,97,0.00,,,0.00,Weather View 32 v70,2013-09-19 07:23:00,
2013-09-19 03:28:00,70.1,68.9,30.07,North,0,0.0,1.0,96,0.00,,,0.00,Weather View 32 v70,2013-09-19 07:28:00,
2013-09-19 03:33:00,70.1,68.9,30.07,North,0,0.0,1.0,96,0.00,,,0.00,Weather View 32 v70,2013-09-19 07:33:00,
2013-09-19 03:38:00,70.1,68.9,30.07,North,0,0.0,1.0,96,0.00,,,0.00,Weather View 32 v70,2013-09-19 07:38:00,
2013-09-19 03:43:00,70.1,68.9,30.07,North,0,0.0,1.0,96,0.00,,,0.00,Weather View 32 v70,2013-09-19 07:43:00,
2013-09-19 03:48:00,70.0,68.8,30.07,North,0,0.0,1.0,96,0.00,,,0.00,Weather View 32 v70,2013-09-19 07:48:00,
2013-09-19 03:53:00,70.0,69.1,30.06,North,0,0.0,1.0,97,0.00,,,0.00,Weather View 32 v70,2013-09-19 07:53:00,
2013-09-19 03:58:00,70.0,69.1,30.06,North,0,0.0,1.0,97,0.00,,,0.00,Weather View 32 v70,2013-09-19 07:58:00,
2013-09-19 04:03:00,70.0,69.1,30.06,North,0,0.0,1.0,97,0.00,,,0.00,Weather View 32 v70,2013-09-19 08:03:00,
2013-09-19 04:08:00,69.9,69.0,30.06,North,0,0.0,1.0,97,0.00,,,0.00,Weather View 32 v70,2013-09-19 08:08:00,
2013-09-19 04:13:00,69.9,69.0,30.06,North,0,0.0,1.0,97,0.00,,,0.00,Weather View 32 v70,2013-09-19 08:13:00,
2013-09-19 04:18:00,69.9,69.0,30.06,North,0,0.0,1.0,97,0.00,,,0.00,Weather View 32 v70,2013-09-19 08:18:00,
2013-09-19 04:23:00,69.9,69.0,30.06,North,0,0.0,1.0,97,0.00,,,0.00,Weather View 32 v70,2013-09-19 08:23:00,
2013-09-19 04:28:00,69.9,69.0,30.06,North,0,0.0,1.0,97,0.00,,,0.00,Weather View 32 v70,2013-09-19 08:28:00,
2013-09-19 04:33:00,69.9,69.0,30.06,North,0,0.0,1.0,97,0.00,,,0.00,Weather View 32 v70,2013-09-19 08:33:00,
2013-09-19 04:38:00,69.8,68.9,30.06,North,0,0.0,1.0,97,0.00,,,0.00,Weather View 32 v70,2013-09-19 08:38:00,
2013-09-19 04:43:00,69.8,68.9,30.06,North,0,0.0,1.0,97,0.00,,,0.00,Weather View 32 v70,2013-09-19 08:43:00,
2013-09-19 04:48:00,69.7,69.1,30.06,North,0,0.0,1.0,98,0.00,,,0.00,Weather View 32 v70,2013-09-19 08:48:00,
2013-09-19 04:53:00,69.7,68.8,30.06,North,0,0.0,1.0,97,0.00,,,0.00,Weather View 32 v70,2013-09-19 08:53:00,
2013-09-19 04:58:00,69.6,69.0,30.06,North,0,0.0,1.0,98,0.00,,,0.00,Weather View 32 v70,2013-09-19 08:58:00,
2013-09-19 05:03:00,69.6,69.0,30.07,North,0,0.0,1.0,98,0.00,,,0.00,Weather View 32 v70,2013-09-19 09:03:00,
2013-09-19 05:08:00,69.5,68.9,30.06,North,0,0.0,1.0,98,0.00,,,0.00,Weather View 32 v70,2013-09-19 09:08:00,
2013-09-19 05:13:00,69.5,68.9,30.06,North,0,0.0,1.0,98,0.00,,,0.00,Weather View 32 v70,2013-09-19 09:13:00,
2013-09-19 05:18:00,69.5,68.9,30.06,North,0,0.0,1.0,98,0.00,,,0.00,Weather View 32 v70,2013-09-19 09:18:00,
2013-09-19 05:23:00,69.4,68.8,30.06,North,0,0.0,1.0,98,0.00,,,0.00,Weather View 32 v70,2013-09-19 09:23:00,
2013-09-19 05:28:00,69.4,68.8,30.06,North,0,0.0,1.0,98,0.00,,,0.00,Weather View 32 v70,2013-09-19 09:28:00,
2013-09-19 05:33:00,69.3,68.7,30.06,North,0,0.0,1.0,98,0.00,,,0.00,Weather View 32 v70,2013-09-19 09:33:00,
2013-09-19 05:38:00,69.3,68.7,30.07,North,0,0.0,1.0,98,0.00,,,0.00,Weather View 32 v70,2013-09-19 09:38:00,
2013-09-19 05:43:00,69.2,68.9,30.07,North,0,0.0,1.0,99,0.00,,,0.00,Weather View 32 v70,2013-09-19 09:43:00,
2013-09-19 05:48:00,69.2,68.6,30.07,North,0,0.0,1.0,98,0.00,,,0.00,Weather View 32 v70,2013-09-19 09:48:00,
2013-09-19 05:53:00,69.2,68.6,30.07,North,0,0.0,1.0,98,0.00,,,0.00,Weather View 32 v70,2013-09-19 09:53:00,
2013-09-19 05:58:00,69.1,68.5,30.07,North,0,0.0,1.0,98,0.00,,,0.00,Weather View 32 v70,2013-09-19 09:58:00,
2013-09-19 06:03:00,69.1,68.8,30.07,North,0,0.0,1.0,99,0.00,,,0.00,Weather View 32 v70,2013-09-19 10:03:00,
2013-09-19 06:08:00,69.1,68.8,30.07,North,3,0.0,1.0,99,0.00,,,0.00,Weather View 32 v70,2013-09-19 10:08:00,
2013-09-19 06:13:00,69.1,68.8,30.07,North,3,0.0,1.0,99,0.00,,,0.00,Weather View 32 v70,2013-09-19 10:13:00,
2013-09-19 06:18:00,69.1,68.8,30.07,North,3,0.0,1.0,99,0.00,,,0.00,Weather View 32 v70,2013-09-19 10:18:00,
2013-09-19 06:23:00,69.0,68.7,30.07,NE,40,0.0,4.0,99,0.00,,,0.00,Weather View 32 v70,2013-09-19 10:23:00,
2013-09-19 06:28:00,69.0,68.7,30.07,NNE,28,0.0,4.0,99,0.00,,,0.00,Weather View 32 v70,2013-09-19 10:28:00,
2013-09-19 06:33:00,69.0,68.7,30.07,NNE,28,0.0,4.0,99,0.00,,,0.00,Weather View 32 v70,2013-09-19 10:33:00,
2013-09-19 06:38:00,69.0,68.7,30.07,NNE,23,0.0,4.0,99,0.00,,,0.00,Weather View 32 v70,2013-09-19 10:38:00,
2013-09-19 06:43:00,68.9,68.6,30.07,NNE,19,0.0,4.0,99,0.00,,,0.00,Weather View 32 v70,2013-09-19 10:43:00,
2013-09-19 06:48:00,68.8,68.5,30.07,NNE,19,0.0,4.0,99,0.38,,,0.00,Weather View 32 v70,2013-09-19 10:48:00,
2013-09-19 06:53:00,68.8,68.5,30.07,NNE,19,0.0,4.0,99,0.00,,,0.00,Weather View 32 v70,2013-09-19 10:53:00,
2013-09-19 06:58:00,68.8,68.5,30.07,North,9,2.0,6.0,99,0.00,,,0.00,Weather View 32 v70,2013-09-19 10:58:00,
2013-09-19 07:03:00,68.8,68.5,30.07,NNE,26,0.0,6.0,99,0.00,,,0.00,Weather View 32 v70,2013-09-19 11:03:00,
2013-09-19 07:08:00,68.7,68.4,30.08,NNE,27,4.0,6.0,99,0.00,,,0.00,Weather View 32 v70,2013-09-19 11:08:00,
2013-09-19 07:13:00,68.7,68.4,30.08,NNE,30,0.0,6.0,99,0.00,,,0.00,Weather View 32 v70,2013-09-19 11:13:00,
2013-09-19 07:18:00,68.6,68.3,30.08,NE,42,0.0,6.0,99,0.00,,,0.00,Weather View 32 v70,2013-09-19 11:18:00,
2013-09-19 07:23:00,68.6,68.3,30.08,NNE,24,0.0,6.0,99,0.00,,,0.00,Weather View 32 v70,2013-09-19 11:23:00,
2013-09-19 07:28:00,68.5,68.2,30.08,North,10,0.0,6.0,99,0.00,,,0.00,Weather View 32 v70,2013-09-19 11:28:00,
2013-09-19 07:33:00,68.5,68.2,30.08,NNE,14,1.0,10.0,99,0.00,,,0.00,Weather View 32 v70,2013-09-19 11:33:00,
2013-09-19 07:38:00,68.4,68.1,30.08,NNE,21,4.0,10.0,99,0.00,,,0.00,Weather View 32 v70,2013-09-19 11:38:00,
2013-09-19 07:43:00,68.4,68.1,30.08,North,355,0.0,10.0,99,0.00,,,0.00,Weather View 32 v70,2013-09-19 11:43:00,
2013-09-19 07:48:00,68.4,68.1,30.08,NNW,347,0.0,10.0,99,0.00,,,0.00,Weather View 32 v70,2013-09-19 11:48:00,
2013-09-19 07:53:00,68.4,68.1,30.08,North,2,0.0,10.0,99,0.00,,,0.00,Weather View 32 v70,2013-09-19 11:53:00,
2013-09-19 07:58:00,68.4,68.1,30.09,North,0,0.0,10.0,99,0.00,,,0.00,Weather View 32 v70,2013-09-19 11:58:00,
2013-09-19 08:04:00,68.5,68.2,30.09,NNW,344,0.0,10.0,99,0.00,,,0.00,Weather View 32 v70,2013-09-19 12:04:00,
2013-09-19 08:09:00,68.6,68.3,30.09,North,9,0.0,10.0,99,0.00,,,0.00,Weather View 32 v70,2013-09-19 12:09:00,
2013-09-19 08:14:00,68.7,68.4,30.09,North,352,0.0,10.0,99,0.00,,,0.00,Weather View 32 v70,2013-09-19 12:14:00,
2013-09-19 08:19:00,68.8,68.2,30.09,North,7,1.0,10.0,98,0.00,,,0.00,Weather View 32 v70,2013-09-19 12:19:00,
2013-09-19 08:24:00,69.0,68.4,30.09,North,1,0.0,10.0,98,0.00,,,0.00,Weather View 32 v70,2013-09-19 12:24:00,
2013-09-19 08:29:00,69.4,68.5,30.10,North,8,6.0,10.0,97,0.00,,,0.00,Weather View 32 v70,2013-09-19 12:29:00,
2013-09-19 08:34:00,69.7,68.5,30.09,North,10,0.0,9.0,96,0.00,,,0.00,Weather View 32 v70,2013-09-19 12:34:00,
2013-09-19 08:39:00,70.3,69.1,30.10,NNE,14,5.0,9.0,96,0.00,,,0.00,Weather View 32 v70,2013-09-19 12:39:00,
2013-09-19 08:44:00,71.0,69.2,30.10,NE,51,0.0,9.0,94,0.00,,,0.00,Weather View 32 v70,2013-09-19 12:44:00,
2013-09-19 08:49:00,71.6,69.5,30.10,NE,34,1.0,9.0,93,0.00,,,0.00,Weather View 32 v70,2013-09-19 12:49:00,
2013-09-19 08:54:00,72.1,69.3,30.10,NNE,26,0.0,9.0,91,0.00,,,0.00,Weather View 32 v70,2013-09-19 12:54:00,
2013-09-19 08:59:00,72.6,69.8,30.10,NNE,26,1.0,9.0,91,0.00,,,0.00,Weather View 32 v70,2013-09-19 12:59:00,
2013-09-19 09:04:00,73.2,69.7,30.10,NNE,25,4.0,9.0,89,0.00,,,0.00,Weather View 32 v70,2013-09-19 13:04:00,
2013-09-19 09:09:00,73.7,70.2,30.10,NNE,27,1.0,9.0,89,0.00,,,0.00,Weather View 32 v70,2013-09-19 13:09:00,
2013-09-19 09:14:00,74.0,70.2,30.10,NNE,22,1.0,9.0,88,0.00,,,0.00,Weather View 32 v70,2013-09-19 13:14:00,
2013-09-19 09:19:00,74.4,70.6,30.10,NNE,21,1.0,9.0,88,0.00,,,0.00,Weather View 32 v70,2013-09-19 13:19:00,
2013-09-19 09:24:00,74.8,70.7,30.10,NE,46,0.0,9.0,87,0.00,,,0.00,Weather View 32 v70,2013-09-19 13:24:00,
2013-09-19 09:29:00,75.1,70.9,30.10,NE,42,1.0,9.0,87,0.00,,,0.00,Weather View 32 v70,2013-09-19 13:29:00,
2013-09-19 09:34:00,75.5,71.0,30.10,NE,53,0.0,9.0,86,0.00,,,0.00,Weather View 32 v70,2013-09-19 13:34:00,
2013-09-19 09:39:00,76.1,70.9,30.11,ENE,76,0.0,9.0,84,0.00,,,0.00,Weather View 32 v70,2013-09-19 13:39:00,
2013-09-19 09:44:00,76.6,71.4,30.11,NE,35,1.0,9.0,84,0.00,,,0.00,Weather View 32 v70,2013-09-19 13:44:00,
2013-09-19 09:49:00,76.6,71.4,30.11,NE,35,1.0,9.0,84,0.00,,,0.00,Weather View 32 v70,2013-09-19 13:49:00,
2013-09-19 09:54:00,76.6,71.4,30.11,NE,35,1.0,9.0,84,0.00,,,0.00,Weather View 32 v70,2013-09-19 13:54:00,
2013-09-19 09:59:00,76.6,71.4,30.11,NE,35,1.0,9.0,84,0.00,,,0.00,Weather View 32 v70,2013-09-19 13:59:00,
2013-09-19 10:04:00,76.6,71.4,30.11,NE,35,1.0,9.0,84,0.00,,,0.00,Weather View 32 v70,2013-09-19 14:04:00,
2013-09-19 10:09:00,76.6,71.4,30.11,NE,35,1.0,9.0,84,0.00,,,0.00,Weather View 32 v70,2013-09-19 14:09:00,
2013-09-19 10:14:00,76.6,71.4,30.11,NE,35,1.0,9.0,84,0.00,,,0.00,Weather View 32 v70,2013-09-19 14:14:00,
2013-09-19 10:19:00,76.6,71.4,30.11,NE,35,1.0,9.0,84,0.00,,,0.00,Weather View 32 v70,2013-09-19 14:19:00,
2013-09-19 10:24:00,76.6,71.4,30.11,NE,35,1.0,8.0,84,0.00,,,0.00,Weather View 32 v70,2013-09-19 14:24:00,
2013-09-19 10:29:00,76.6,71.4,30.11,NE,35,1.0,8.0,84,0.00,,,0.00,Weather View 32 v70,2013-09-19 14:29:00,
2013-09-19 10:34:00,81.1,73.2,30.11,NNE,22,2.0,8.0,77,0.00,,,0.00,Weather View 32 v70,2013-09-19 14:34:00,
2013-09-19 10:39:00,81.5,73.6,30.11,NNE,21,1.0,10.0,77,0.00,,,0.00,Weather View 32 v70,2013-09-19 14:39:00,
2013-09-19 10:44:00,81.8,73.5,30.12,NNE,22,0.0,10.0,76,0.00,,,0.00,Weather View 32 v70,2013-09-19 14:44:00,
2013-09-19 10:49:00,82.1,73.7,30.12,NE,39,1.0,10.0,76,0.00,,,0.00,Weather View 32 v70,2013-09-19 14:49:00,
2013-09-19 10:54:00,82.2,73.0,30.12,ENE,57,2.0,10.0,74,0.00,,,0.00,Weather View 32 v70,2013-09-19 14:54:00,
2013-09-19 10:59:00,82.5,74.5,30.12,ENE,74,1.0,10.0,77,0.00,,,0.00,Weather View 32 v70,2013-09-19 14:59:00,
2013-09-19 11:04:00,83.4,73.8,30.12,North,6,1.0,10.0,73,0.00,,,0.00,Weather View 32 v70,2013-09-19 15:04:00,
2013-09-19 11:09:00,84.1,75.3,30.12,NNE,27,0.0,10.0,75,0.00,,,0.00,Weather View 32 v70,2013-09-19 15:09:00,
2013-09-19 11:14:00,84.5,74.0,30.13,East,81,5.0,10.0,71,0.00,,,0.00,Weather View 32 v70,2013-09-19 15:14:00,
2013-09-19 11:19:00,84.5,74.0,30.12,NNE,16,2.0,10.0,71,0.00,,,0.00,Weather View 32 v70,2013-09-19 15:19:00,
2013-09-19 11:24:00,84.9,74.4,30.12,SE,138,0.0,10.0,71,0.00,,,0.00,Weather View 32 v70,2013-09-19 15:24:00,
2013-09-19 11:29:00,85.3,74.4,30.12,NE,42,0.0,10.0,70,0.00,,,0.00,Weather View 32 v70,2013-09-19 15:29:00,
2013-09-19 11:34:00,85.3,74.4,30.12,ENE,71,3.0,10.0,70,0.00,,,0.00,Weather View 32 v70,2013-09-19 15:34:00,
2013-09-19 11:39:00,85.6,75.1,30.12,ESE,104,1.0,10.0,71,0.00,,,0.00,Weather View 32 v70,2013-09-19 15:39:00,
2013-09-19 11:44:00,85.6,74.2,30.12,NNE,32,0.0,10.0,69,0.00,,,0.00,Weather View 32 v70,2013-09-19 15:44:00,
2013-09-19 11:49:00,84.5,73.6,30.12,ENE,64,2.0,10.0,70,0.00,,,0.00,Weather View 32 v70,2013-09-19 15:49:00,
2013-09-19 11:54:00,84.4,73.9,30.12,ENE,67,1.0,10.0,71,0.00,,,0.00,Weather View 32 v70,2013-09-19 15:54:00,
2013-09-19 11:59:00,84.8,73.4,30.12,NE,34,2.0,11.0,69,0.00,,,0.00,Weather View 32 v70,2013-09-19 15:59:00,
2013-09-19 12:04:00,84.8,73.4,30.12,NNE,24,8.0,11.0,69,0.00,,,0.00,Weather View 32 v70,2013-09-19 16:04:00,
2013-09-19 12:09:00,84.8,73.4,30.12,NNE,24,8.0,11.0,69,0.00,,,0.00,Weather View 32 v70,2013-09-19 16:09:00,
2013-09-19 12:14:00,84.8,73.4,30.12,NNE,24,8.0,11.0,69,0.00,,,0.00,Weather View 32 v70,2013-09-19 16:14:00,
2013-09-19 12:19:00,84.8,73.4,30.12,NNE,24,8.0,11.0,69,0.00,,,0.00,Weather View 32 v70,2013-09-19 16:19:00,
2013-09-19 12:24:00,84.8,73.4,30.12,NNE,24,8.0,11.0,69,0.00,,,0.00,Weather View 32 v70,2013-09-19 16:24:00,
2013-09-19 12:29:00,84.8,73.4,30.12,NNE,24,8.0,11.0,69,0.00,,,0.00,Weather View 32 v70,2013-09-19 16:29:00,
2013-09-19 12:34:00,84.8,73.4,30.12,NNE,24,8.0,11.0,69,0.00,,,0.00,Weather View 32 v70,2013-09-19 16:34:00,
2013-09-19 12:39:00,84.8,73.4,30.12,NNE,24,8.0,11.0,69,0.00,,,0.00,Weather View 32 v70,2013-09-19 16:39:00,
2013-09-19 12:44:00,84.8,73.4,30.12,NNE,24,8.0,11.0,69,0.00,,,0.00,Weather View 32 v70,2013-09-19 16:44:00,
2013-09-19 12:49:00,84.8,73.4,30.12,NNE,24,8.0,11.0,69,0.00,,,0.00,Weather View 32 v70,2013-09-19 16:49:00,
2013-09-19 12:54:00,84.8,73.4,30.12,NNE,24,8.0,11.0,69,0.00,,,0.00,Weather View 32 v70,2013-09-19 16:54:00,
2013-09-19 12:59:00,84.8,73.4,30.12,NNE,24,8.0,9.0,69,0.00,,,0.00,Weather View 32 v70,2013-09-19 16:59:00,
2013-09-19 13:04:00,84.8,73.4,30.12,NNE,24,8.0,0.0,69,0.00,,,0.00,Weather View 32 v70,2013-09-19 17:04:00,
2013-09-19 13:09:00,84.8,73.4,30.12,NNE,24,8.0,0.0,69,0.00,,,0.00,Weather View 32 v70,2013-09-19 17:09:00,
2013-09-19 13:14:00,84.8,73.4,30.12,NNE,24,8.0,0.0,69,0.00,,,0.00,Weather View 32 v70,2013-09-19 17:14:00,
2013-09-19 13:19:00,84.8,73.4,30.12,NNE,24,8.0,0.0,69,0.00,,,0.00,Weather View 32 v70,2013-09-19 17:19:00,
2013-09-19 13:24:00,84.8,73.4,30.12,NNE,24,8.0,0.0,69,0.00,,,0.00,Weather View 32 v70,2013-09-19 17:24:00,
2013-09-19 13:29:00,84.8,73.4,30.12,NNE,24,8.0,0.0,69,0.00,,,0.00,Weather View 32 v70,2013-09-19 17:29:00,
2013-09-19 13:34:00,85.8,74.4,30.09,NE,43,7.0,17.0,69,0.00,,,0.00,Weather View 32 v70,2013-09-19 17:34:00,
2013-09-19 13:39:00,85.9,74.9,30.09,East,82,10.0,17.0,70,0.00,,,0.00,Weather View 32 v70,2013-09-19 17:39:00,
2013-09-19 13:44:00,85.6,73.3,30.09,East,91,10.0,17.0,67,0.00,,,0.00,Weather View 32 v70,2013-09-19 17:44:00,
2013-09-19 13:49:00,85.1,74.2,30.09,ESE,111,5.0,17.0,70,0.00,,,0.00,Weather View 32 v70,2013-09-19 17:49:00,
2013-09-19 13:54:00,85.1,73.3,30.09,ENE,71,6.0,17.0,68,0.00,,,0.00,Weather View 32 v70,2013-09-19 17:54:00,
2013-09-19 13:59:00,85.1,74.2,30.09,SE,141,1.0,17.0,70,0.00,,,0.00,Weather View 32 v70,2013-09-19 17:59:00,
2013-09-19 14:04:00,85.1,73.3,30.08,ESE,107,8.0,17.0,68,0.00,,,0.00,Weather View 32 v70,2013-09-19 18:04:00,
2013-09-19 14:09:00,85.1,73.7,30.08,NNE,16,4.0,17.0,69,0.00,,,0.00,Weather View 32 v70,2013-09-19 18:09:00,
2013-09-19 14:14:00,85.1,73.3,30.08,ESE,108,3.0,17.0,68,0.00,,,0.00,Weather View 32 v70,2013-09-19 18:14:00,
2013-09-19 14:19:00,85.3,73.5,30.08,NE,51,1.0,17.0,68,0.00,,,0.00,Weather View 32 v70,2013-09-19 18:19:00,
2013-09-19 14:24:00,85.4,72.7,30.07,NE,53,1.0,17.0,66,0.00,,,0.00,Weather View 32 v70,2013-09-19 18:24:00,
2013-09-19 14:30:00,85.3,73.5,30.07,SSE,158,1.0,17.0,68,0.00,,,0.00,Weather View 32 v70,2013-09-19 18:30:00,
2013-09-19 14:35:00,85.7,73.4,30.07,NE,50,8.0,16.0,67,0.00,,,0.00,Weather View 32 v70,2013-09-19 18:35:00,
2013-09-19 14:40:00,85.7,72.5,30.06,ESE,118,7.0,16.0,65,0.00,,,0.00,Weather View 32 v70,2013-09-19 18:40:00,
2013-09-19 14:45:00,85.9,72.7,30.07,East,101,2.0,16.0,65,0.00,,,0.00,Weather View 32 v70,2013-09-19 18:45:00,
2013-09-19 14:50:00,86.3,73.5,30.07,SSE,159,0.0,16.0,66,0.00,,,0.00,Weather View 32 v70,2013-09-19 18:50:00,
2013-09-19 14:55:00,85.7,72.1,30.07,NNE,24,6.0,16.0,64,0.00,,,0.00,Weather View 32 v70,2013-09-19 18:55:00,
2013-09-19 15:00:00,84.8,72.1,30.07,NE,51,3.0,15.0,66,0.00,,,0.00,Weather View 32 v70,2013-09-19 19:00:00,
2013-09-19 15:05:00,84.5,71.8,30.07,ENE,61,1.0,15.0,66,0.00,,,0.00,Weather View 32 v70,2013-09-19 19:05:00,
2013-09-19 15:10:00,84.8,71.7,30.07,NE,52,3.0,15.0,65,0.00,,,0.00,Weather View 32 v70,2013-09-19 19:10:00,
2013-09-19 15:15:00,84.8,71.7,30.06,ENE,61,8.0,15.0,65,0.00,,,0.00,Weather View 32 v70,2013-09-19 19:15:00,
2013-09-19 15:20:00,84.8,71.7,30.06,ENE,61,8.0,15.0,65,0.00,,,0.00,Weather View 32 v70,2013-09-19 19:20:00,
2013-09-19 15:25:00,84.8,71.7,30.06,ENE,61,8.0,15.0,65,0.00,,,0.00,Weather View 32 v70,2013-09-19 19:25:00,
2013-09-19 15:30:00,84.8,71.7,30.06,ENE,61,8.0,14.0,65,0.00,,,0.00,Weather View 32 v70,2013-09-19 19:30:00,
2013-09-19 15:35:00,84.8,71.7,30.06,ENE,61,8.0,14.0,65,0.00,,,0.00,Weather View 32 v70,2013-09-19 19:35:00,
2013-09-19 15:40:00,84.8,71.7,30.06,ENE,61,8.0,14.0,65,0.00,,,0.00,Weather View 32 v70,2013-09-19 19:40:00,
2013-09-19 15:45:00,84.8,71.7,30.06,ENE,61,8.0,14.0,65,0.00,,,0.00,Weather View 32 v70,2013-09-19 19:45:00,
2013-09-19 15:50:00,84.8,71.7,30.06,ENE,61,8.0,14.0,65,0.00,,,0.00,Weather View 32 v70,2013-09-19 19:50:00,
2013-09-19 15:55:00,84.8,71.7,30.06,ENE,61,8.0,14.0,65,0.00,,,0.00,Weather View 32 v70,2013-09-19 19:55:00,
2013-09-19 16:00:00,84.8,71.7,30.06,ENE,61,8.0,14.0,65,0.00,,,0.00,Weather View 32 v70,2013-09-19 20:00:00,
2013-09-19 16:05:00,84.8,71.7,30.06,ENE,61,8.0,14.0,65,0.00,,,0.00,Weather View 32 v70,2013-09-19 20:05:00,
2013-09-19 16:10:00,84.8,71.7,30.06,ENE,61,8.0,11.0,65,0.00,,,0.00,Weather View 32 v70,2013-09-19 20:10:00,
2013-09-19 16:15:00,84.8,71.7,30.06,ENE,61,8.0,0.0,65,0.00,,,0.00,Weather View 32 v70,2013-09-19 20:15:00,
2013-09-19 16:20:00,84.8,71.7,30.06,ENE,61,8.0,0.0,65,0.00,,,0.00,Weather View 32 v70,2013-09-19 20:20:00,
2013-09-19 16:25:00,84.8,71.7,30.06,ENE,61,8.0,0.0,65,0.00,,,0.00,Weather View 32 v70,2013-09-19 20:25:00,
2013-09-19 16:30:00,81.6,70.4,30.06,NE,44,9.0,0.0,69,0.00,,,0.00,Weather View 32 v70,2013-09-19 20:30:00,
2013-09-19 16:35:00,81.5,71.6,30.06,ENE,66,0.0,13.0,72,0.00,,,0.00,Weather View 32 v70,2013-09-19 20:35:00,
2013-09-19 16:40:00,81.2,71.7,30.06,NE,49,0.0,13.0,73,0.00,,,0.00,Weather View 32 v70,2013-09-19 20:40:00,
2013-09-19 16:45:00,81.2,71.3,30.06,East,80,9.0,16.0,72,0.00,,,0.00,Weather View 32 v70,2013-09-19 20:45:00,
2013-09-19 16:50:00,81.0,71.1,30.07,NNE,29,0.0,16.0,72,0.00,,,0.00,Weather View 32 v70,2013-09-19 20:50:00,
2013-09-19 16:55:00,81.1,71.6,30.07,ESE,119,8.0,16.0,72,0.00,,,0.00,Weather View 32 v70,2013-09-19 20:55:00,
2013-09-19 17:00:00,81.2,71.7,30.07,East,95,4.0,16.0,72,0.00,,,0.00,Weather View 32 v70,2013-09-19 21:00:00,
2013-09-19 17:05:00,81.2,70.9,30.07,East,96,3.0,16.0,71,0.00,,,0.00,Weather View 32 v70,2013-09-19 21:05:00,
2013-09-19 17:10:00,81.2,71.7,30.07,NNE,32,1.0,16.0,73,0.00,,,0.00,Weather View 32 v70,2013-09-19 21:10:00,
2013-09-19 17:15:00,80.9,71.0,30.07,ESE,102,15.0,16.0,72,0.00,,,0.00,Weather View 32 v70,2013-09-19 21:15:00,
2013-09-19 17:20:00,80.5,70.2,30.07,East,95,4.0,16.0,71,0.00,,,0.00,Weather View 32 v70,2013-09-19 21:20:00,
2013-09-19 17:26:00,80.2,69.9,30.07,East,83,0.0,16.0,71,0.00,,,0.00,Weather View 32 v70,2013-09-19 21:26:00,
2013-09-19 17:31:00,80.1,70.6,30.06,ENE,72,0.0,16.0,73,0.00,,,0.00,Weather View 32 v70,2013-09-19 21:31:00,
2013-09-19 17:36:00,80.1,70.6,30.06,ENE,72,0.0,16.0,73,0.00,,,0.00,Weather View 32 v70,2013-09-19 21:36:00,
2013-09-19 17:41:00,80.1,70.6,30.06,ENE,72,0.0,16.0,73,0.00,,,0.00,Weather View 32 v70,2013-09-19 21:41:00,
2013-09-19 17:46:00,80.1,70.6,30.06,ENE,72,0.0,15.0,73,0.00,,,0.00,Weather View 32 v70,2013-09-19 21:46:00,
2013-09-19 17:51:00,80.1,70.6,30.06,ENE,72,0.0,15.0,73,0.00,,,0.00,Weather View 32 v70,2013-09-19 21:51:00,
2013-09-19 17:56:00,80.1,70.6,30.06,ENE,72,0.0,15.0,73,0.00,,,0.00,Weather View 32 v70,2013-09-19 21:56:00,
2013-09-19 18:01:00,80.1,70.6,30.06,ENE,72,0.0,15.0,73,0.00,,,0.00,Weather View 32 v70,2013-09-19 22:01:00,
2013-09-19 18:06:00,80.1,70.6,30.06,ENE,72,0.0,15.0,73,0.00,,,0.00,Weather View 32 v70,2013-09-19 22:06:00,
2013-09-19 18:11:00,80.1,70.6,30.06,ENE,72,0.0,15.0,73,0.00,,,0.00,Weather View 32 v70,2013-09-19 22:11:00,
2013-09-19 18:16:00,80.1,70.6,30.06,ENE,72,0.0,15.0,73,0.00,,,0.00,Weather View 32 v70,2013-09-19 22:16:00,
2013-09-19 18:21:00,80.1,70.6,30.06,ENE,72,0.0,13.0,73,0.00,,,0.00,Weather View 32 v70,2013-09-19 22:21:00,
2013-09-19 18:26:00,80.1,70.6,30.06,ENE,72,0.0,6.0,73,0.00,,,0.00,Weather View 32 v70,2013-09-19 22:26:00,
2013-09-19 18:31:00,79.2,70.6,30.07,ENE,59,1.0,4.0,75,0.00,,,0.00,Weather View 32 v70,2013-09-19 22:31:00,
2013-09-19 18:36:00,79.1,70.5,30.07,ENE,77,3.0,11.0,75,0.00,,,0.00,Weather View 32 v70,2013-09-19 22:36:00,
2013-09-19 18:41:00,78.9,70.3,30.07,ESE,102,0.0,11.0,75,0.00,,,0.00,Weather View 32 v70,2013-09-19 22:41:00,
2013-09-19 18:46:00,78.7,70.5,30.08,ENE,73,0.0,11.0,76,0.00,,,0.00,Weather View 32 v70,2013-09-19 22:46:00,
2013-09-19 18:51:00,78.5,70.3,30.07,NE,47,0.0,11.0,76,0.00,,,0.00,Weather View 32 v70,2013-09-19 22:51:00,
2013-09-19 18:56:00,78.3,70.5,30.07,East,81,1.0,11.0,77,0.00,,,0.00,Weather View 32 v70,2013-09-19 22:56:00,
2013-09-19 19:01:00,78.2,70.7,30.07,ENE,66,0.0,11.0,78,0.00,,,0.00,Weather View 32 v70,2013-09-19 23:01:00,
2013-09-19 19:06:00,77.9,70.5,30.07,ENE,60,0.0,11.0,78,0.00,,,0.00,Weather View 32 v70,2013-09-19 23:06:00,
2013-09-19 19:11:00,77.7,70.6,30.07,ENE,67,1.0,11.0,79,0.00,,,0.00,Weather View 32 v70,2013-09-19 23:11:00,
2013-09-19 19:16:00,77.4,70.7,30.07,ENE,71,0.0,11.0,80,0.00,,,0.00,Weather View 32 v70,2013-09-19 23:16:00,
2013-09-19 19:21:00,77.1,70.4,30.07,ENE,63,0.0,11.0,80,0.00,,,0.00,Weather View 32 v70,2013-09-19 23:21:00,
2013-09-19 19:26:00,76.9,70.6,30.07,ESE,105,0.0,11.0,81,0.00,,,0.00,Weather View 32 v70,2013-09-19 23:26:00,
2013-09-19 19:31:00,76.7,70.8,30.07,East,90,0.0,11.0,82,0.00,,,0.00,Weather View 32 v70,2013-09-19 23:31:00,
2013-09-19 19:36:00,76.3,71.1,30.07,East,90,0.0,9.0,83,0.00,,,0.00,Weather View 32 v70,2013-09-19 23:36:00,
2013-09-19 19:41:00,76.0,70.4,30.07,ENE,65,4.0,7.0,83,0.00,,,0.00,Weather View 32 v70,2013-09-19 23:41:00,
2013-09-19 19:46:00,75.8,70.9,30.08,ENE,61,0.0,7.0,85,0.00,,,0.00,Weather View 32 v70,2013-09-19 23:46:00,
2013-09-19 19:51:00,75.6,71.1,30.08,ENE,61,0.0,7.0,86,0.00,,,0.00,Weather View 32 v70,2013-09-19 23:51:00,
2013-09-19 19:57:00,75.2,70.4,30.08,NE,50,0.0,7.0,85,0.00,,,0.00,Weather View 32 v70,2013-09-19 23:57:00,
2013-09-19 20:02:00,75.1,70.3,30.08,NE,50,0.0,7.0,85,0.00,,,0.00,Weather View 32 v70,2013-09-20 00:02:00,
2013-09-19 20:07:00,74.9,70.4,30.08,NE,50,0.0,7.0,86,0.00,,,0.00,Weather View 32 v70,2013-09-20 00:07:00,
2013-09-19 20:12:00,74.7,70.2,30.08,NE,50,0.0,7.0,86,0.00,,,0.00,Weather View 32 v70,2013-09-20 00:12:00,
2013-09-19 20:17:00,74.6,70.8,30.08,NE,50,0.0,7.0,88,0.00,,,0.00,Weather View 32 v70,2013-09-20 00:17:00,
2013-09-19 20:22:00,74.3,70.5,30.08,NE,50,0.0,7.0,88,0.00,,,0.00,Weather View 32 v70,2013-09-20 00:22:00,
2013-09-19 20:27:00,74.1,70.6,30.08,NE,50,0.0,7.0,89,0.00,,,0.00,Weather View 32 v70,2013-09-20 00:27:00,
2013-09-19 20:32:00,73.8,70.3,30.08,NE,50,0.0,7.0,89,0.00,,,0.00,Weather View 32 v70,2013-09-20 00:32:00,
2013-09-19 20:37:00,73.5,70.4,30.08,NE,50,0.0,7.0,90,0.00,,,0.00,Weather View 32 v70,2013-09-20 00:37:00,
2013-09-19 20:42:00,73.2,70.4,30.08,NE,50,0.0,6.0,91,0.00,,,0.00,Weather View 32 v70,2013-09-20 00:42:00,
2013-09-19 20:47:00,73.0,70.5,30.08,NE,50,0.0,5.0,92,0.00,,,0.00,Weather View 32 v70,2013-09-20 00:47:00,
2013-09-19 20:52:00,72.8,70.3,30.08,NE,50,0.0,5.0,92,0.00,,,0.00,Weather View 32 v70,2013-09-20 00:52:00,
2013-09-19 20:57:00,72.6,70.1,30.08,NE,50,0.0,1.0,92,0.00,,,0.00,Weather View 32 v70,2013-09-20 00:57:00,
2013-09-19 21:02:00,72.4,70.3,30.08,NE,50,0.0,0.0,93,0.00,,,0.00,Weather View 32 v70,2013-09-20 01:02:00,
2013-09-19 21:07:00,72.3,70.5,30.09,NE,50,0.0,0.0,94,0.00,,,0.00,Weather View 32 v70,2013-09-20 01:07:00,
2013-09-19 21:12:00,72.1,70.3,30.09,NE,50,0.0,0.0,94,0.00,,,0.00,Weather View 32 v70,2013-09-20 01:12:00,
2013-09-19 21:17:00,71.9,70.1,30.09,NE,50,0.0,0.0,94,0.00,,,0.00,Weather View 32 v70,2013-09-20 01:17:00,
2013-09-19 21:22:00,71.8,70.0,30.09,NE,50,0.0,0.0,94,0.00,,,0.00,Weather View 32 v70,2013-09-20 01:22:00,
2013-09-19 21:27:00,71.7,69.9,30.09,NE,50,0.0,0.0,94,0.00,,,0.00,Weather View 32 v70,2013-09-20 01:27:00,
2013-09-19 21:32:00,71.6,70.1,30.09,NE,50,0.0,0.0,95,0.00,,,0.00,Weather View 32 v70,2013-09-20 01:32:00,
2013-09-19 21:37:00,71.6,70.1,30.09,NE,50,0.0,0.0,95,0.00,,,0.00,Weather View 32 v70,2013-09-20 01:37:00,
2013-09-19 21:42:00,71.5,70.3,30.09,NE,50,0.0,0.0,96,0.00,,,0.00,Weather View 32 v70,2013-09-20 01:42:00,
2013-09-19 21:47:00,71.5,70.3,30.09,NE,50,0.0,0.0,96,0.00,,,0.00,Weather View 32 v70,2013-09-20 01:47:00,
2013-09-19 21:52:00,71.4,70.2,30.09,NE,50,0.0,4.0,96,0.00,,,0.00,Weather View 32 v70,2013-09-20 01:52:00,
2013-09-19 21:57:00,71.5,70.3,30.09,NE,50,0.0,4.0,96,0.00,,,0.00,Weather View 32 v70,2013-09-20 01:57:00,
2013-09-19 22:02:00,71.4,70.2,30.09,NE,50,0.0,4.0,96,0.00,,,0.00,Weather View 32 v70,2013-09-20 02:02:00,
2013-09-19 22:07:00,71.4,70.2,30.09,NE,50,0.0,4.0,96,1.71,,,0.00,Weather View 32 v70,2013-09-20 02:07:00,
2013-09-19 22:12:00,71.4,70.2,30.09,NE,50,0.0,4.0,96,1.71,,,0.00,Weather View 32 v70,2013-09-20 02:12:00,
2013-09-19 22:17:00,71.4,70.2,30.09,NE,50,0.0,4.0,96,0.00,,,0.00,Weather View 32 v70,2013-09-20 02:17:00,
2013-09-19 22:22:00,71.4,70.5,30.09,NE,50,0.0,4.0,96,0.00,,,0.00,Weather View 32 v70,2013-09-20 02:22:00,
2013-09-19 22:27:00,71.4,70.5,30.09,NE,50,0.0,4.0,97,0.00,,,0.00,Weather View 32 v70,2013-09-20 02:27:00,
2013-09-19 22:33:00,71.2,70.0,30.09,NE,50,0.0,4.0,96,0.00,,,0.00,Weather View 32 v70,2013-09-20 02:33:00,
2013-09-19 22:38:00,71.1,69.9,30.09,NE,50,0.0,4.0,96,0.00,,,0.00,Weather View 32 v70,2013-09-20 02:38:00,
2013-09-19 22:43:00,71.0,69.8,30.09,NE,47,0.0,4.0,96,0.00,,,0.00,Weather View 32 v70,2013-09-20 02:43:00,
2013-09-19 22:48:00,71.0,70.1,30.09,NE,47,0.0,4.0,97,0.00,,,0.00,Weather View 32 v70,2013-09-20 02:48:00,
2013-09-19 22:53:00,70.9,70.0,30.09,NE,47,0.0,4.0,97,0.00,,,0.00,Weather View 32 v70,2013-09-20 02:53:00,
2013-09-19 22:58:00,70.9,70.0,30.09,NE,47,0.0,4.0,97,0.00,,,0.00,Weather View 32 v70,2013-09-20 02:58:00,
2013-09-19 23:03:00,70.9,70.0,30.09,NE,47,4.0,4.0,97,0.00,,,0.00,Weather View 32 v70,2013-09-20 03:03:00,
2013-09-19 23:08:00,70.9,70.0,30.09,NE,48,1.0,6.0,97,0.00,,,0.00,Weather View 32 v70,2013-09-20 03:08:00,
2013-09-19 23:13:00,70.9,70.0,30.08,NE,47,0.0,6.0,97,0.00,,,0.00,Weather View 32 v70,2013-09-20 03:13:00,
2013-09-19 23:18:00,70.8,69.9,30.08,NE,48,0.0,6.0,97,0.00,,,0.00,Weather View 32 v70,2013-09-20 03:18:00,
2013-09-19 23:23:00,70.7,69.8,30.08,NE,48,0.0,6.0,97,0.00,,,0.00,Weather View 32 v70,2013-09-20 03:23:00,
2013-09-19 23:28:00,70.6,70.0,30.08,NE,48,0.0,6.0,98,0.00,,,0.00,Weather View 32 v70,2013-09-20 03:28:00,
2013-09-19 23:33:00,70.6,69.7,30.08,NE,47,0.0,6.0,97,0.00,,,0.00,Weather View 32 v70,2013-09-20 03:33:00,
2013-09-19 23:38:00,70.5,69.9,30.08,NE,48,0.0,6.0,98,0.00,,,0.00,Weather View 32 v70,2013-09-20 03:38:00,
2013-09-19 23:43:00,70.5,69.6,30.08,NE,47,0.0,6.0,97,0.00,,,0.00,Weather View 32 v70,2013-09-20 03:43:00,
2013-09-19 23:48:00,70.4,69.8,30.08,NE,48,0.0,6.0,98,0.00,,,0.00,Weather View 32 v70,2013-09-20 03:48:00,
2013-09-19 23:53:00,70.4,69.5,30.08,NE,48,0.0,6.0,97,0.00,,,0.00,Weather View 32 v70,2013-09-20 03:53:00,
2013-09-19 23:58:00,70.4,69.8,30.08,NE,48,0.0,6.0,98,0.00,,,0.00,Weather View 32 v70,2013-09-20 03:58:00,